Home   Weather   Monrovia   Past weeks

Flag for Liberia Past Weather in Monrovia, Liberia — Yesterday and Last 2 Weeks

Now
86 °F

Passing clouds.


Feels Like: 95 °F
Forecast: N/A
Wind: 9 mph from Southwest

Location: Roberts Field

Current Time: Feb 19, 2017 at 6:52:40 pm

Latest Report: Feb 19, 2017 at 6:00 pm


Visibility: N/A

Pressure: 29.80 "Hg

Humidity: 70%

Dew Point: 75 °F

Location of MonroviaLocation

Past Weather in Monrovia — Graph

°F

Monrovia Temperature Yesterday

Maximum temperature yesterday: 93 °F (at 2:30 pm)
Minimum temperature yesterday: 72 °F (at 5:00 am)
Average temperature yesterday: 82 °F

High & Low Weather Summary for the Past Weeks

 TemperatureHumidityPressure
High95 °F (Feb 6, 3:00 pm)100% (Feb 6, 7:30 am)29.95 "Hg (Feb 6, 7:30 am)
Low72 °F (Feb 18, 5:00 am)47% (Feb 5, 1:30 pm)29.68 "Hg (Feb 11, 4:30 pm)
Average83 °F81%29.83 "Hg
* Reported Feb 4 5:30 pm — Feb 19 5:30 pm, Monrovia, Weather by CustomWeather, © 2017

Note: Actual official high and low records may vary slightly from our data, if they occured in-between our weather recording intervals... More about our weather records

Advertising

Monrovia Weather History for the Previous 24 Hours

Scroll right to see more
 ConditionsComfort  
Time TempWeatherWind HumidityBarometerVisibility
5:30 pm
Sun, Feb 19
88 °FPassing clouds.14 mph66%29.80 "HgN/A
5:00 pm90 °FPassing clouds.13 mph63%29.80 "HgN/A
4:30 pm90 °FPassing clouds.12 mph63%29.80 "HgN/A
4:00 pm90 °FScattered clouds.17 mph63%29.80 "HgN/A
3:30 pm90 °FScattered clouds.15 mph67%29.83 "HgN/A
3:00 pm91 °FPartly sunny.16 mph63%29.83 "HgN/A
2:30 pm91 °FPartly sunny.15 mph56%29.83 "HgN/A
2:00 pm91 °FPartly sunny.9 mph56%29.86 "HgN/A
1:30 pm91 °FPartly sunny.12 mph56%29.86 "HgN/A
1:00 pm91 °FPartly sunny.7 mph56%29.86 "HgN/A
12:30 pm91 °FPartly sunny.5 mph52%29.89 "HgN/A
12:00 pm90 °FPartly sunny.3 mph63%29.92 "HgN/A
11:30 am90 °FPartly sunny.No wind63%29.92 "HgN/A
11:00 am88 °FPartly sunny.No wind66%29.95 "HgN/A
10:30 am86 °FPartly sunny.13 mph75%29.95 "HgN/A
10:00 am82 °FPartly sunny.7 mph84%29.95 "HgN/A
9:30 am81 °FPartly sunny.9 mph84%29.95 "HgN/A
9:00 am81 °FPartly sunny.6 mph84%29.95 "HgN/A
8:30 am81 °FPartly sunny.No wind84%29.92 "Hg6 mi
8:00 am79 °FPartly sunny.No wind89%29.92 "Hg6 mi
7:30 am77 °FPassing clouds.No wind94%29.92 "Hg5 mi
7:00 am77 °FPassing clouds.No wind94%29.92 "Hg5 mi
6:30 am77 °FPassing clouds.No wind94%29.89 "Hg5 mi
6:00 am77 °FPassing clouds.No wind94%29.89 "Hg5 mi
4:30 am79 °FPassing clouds.No wind94%29.89 "Hg5 mi
3:00 am79 °FPassing clouds.No wind94%29.89 "HgN/A
2:00 am79 °FPassing clouds.No wind94%29.92 "HgN/A
11:30 pm
Sat, Feb 18
81 °FPassing clouds.No wind84%29.95 "HgN/A
11:00 pm81 °FPassing clouds.No wind84%29.95 "HgN/A
10:30 pm81 °FPassing clouds.No wind84%29.95 "HgN/A
10:00 pm81 °FPassing clouds.No wind84%29.92 "HgN/A
9:30 pm81 °FPassing clouds.No wind84%29.92 "HgN/A
9:00 pm81 °FPassing clouds.No wind84%29.92 "HgN/A
8:30 pm81 °FPassing clouds.No wind84%29.92 "HgN/A
8:00 pm81 °FPassing clouds.No wind84%29.89 "HgN/A
7:30 pm81 °FScattered clouds.No wind84%29.89 "HgN/A
7:00 pm82 °FBroken clouds.No wind74%29.86 "HgN/A
6:00 pm84 °FBroken clouds.7 mph66%29.83 "HgN/A
Weather by CustomWeather, © 2017

See weather overviewHow to use our weather pages